一网星座-0020星 (ONEWEB-0020 )

导读

ONEWEB-0020是英国OneWeb公司低轨互联网卫星星座的组网卫星,于2020年2月6日发射入轨,属于OneWeb一期星座部署批次。它依托OneWeb星座的批量化制造模式,成本更低、部署效率更高,运行在近地轨道,旨在为全球偏远地区、航空海运等场景提供高速低延迟的互联网接入服务,助力填补全球数字鸿沟,是OneWeb推进全球网络覆盖建设的重要组成部分。

Basic Information
目录编号:
45133
目录名称:
ONEWEB-0020
国际标识:
2020-008C
轨道中心:
EARTH
卫星名称:
一网星座-0020星
卫星全名:
一网星座-0020星 (ONEWEB-0020 )
卫星状态:
在轨 (已飞行2409 天)
发射日期:
2020-02-06 UTC
国别 :
英国 (GB)
星等 :
--
This satellite is enrolled in the Space Conjunction Data Service (SCDS) and the current flight risk assessment level is: No High Risk
Orbit Information
数据来源 国际轨道数据 AOE轨道数据
星历时间 2026-09-11T15:54:34+0800
8小时前
查看轨道信息
2026-09-06T06:00:00+0800
5天前
查看轨道信息
半长轴 7599.85km 7599.881km
偏心率 0.0001747 0.0001717
轨道倾角 87.890° 87.888°
近地点辐角 99.840° 99.535°
升交点赤经 19.117° 20.191°
平近点角 260.292° 300.660°
近地点 1220.385km 1220.439km
远地点 1223.041km 1223.049km
周期 109.892分钟 109.893分钟
每日圈数 13.103741 13.103659
Detailed Information
平衡模式:
三轴稳定
覆盖范围:
全球
运营商:
一网卫星公司
运营商所在国:
英国
制造商(研发单位):
空客防务与航天公司
制造商所在国:
法国大都会
使用方式:
暂无
Satellite Introduction
OneWeb卫星网络由648颗重约125公斤的微型卫星组成,运行在1200公里的轨道上。 每颗卫星都能够提供至少每秒8千兆位的吞吐量,以使用其高吞吐量的Ku频段有效载荷为家庭和移动平台提供互联网接入。该卫星仍在工作。
2D Orbit Map
3D Orbit Map
Orbit Altitude Analysis Chart
Orbit Inclination Analysis Chart
Orbit Comprehensive Analysis Chart
View Comprehensive Chart
Miss Distance Evolution Trend with All Objects
Collision Probability Evolution Trend with All Objects